BADR-4

Last updated on Thu Mar 05 2026 00:02:55 GMT+0000 (Coordinated Universal Time)

1 29526U 06051A 26063.30461404 .00000134 00000+0 00000+0 0 9991 2 29526 1.7344 82.2970 0007451 262.7719 312.8623 1.00271923 50212
UTC large
Height (km)
Speed (km/s)
/
Latitude / Longitude
Inclination (degrees)
Orbital Period (minutes)
Azimuth
Elevation
Range (km)
Doppler Factor

Next 0 passes for location: London (51.5072 / 0.1276)

Sorry there are no passes over London.